Time,TemperatureF,DewpointF,PressureIn,WindDirection,WindDirectionDegrees,WindSpeedMPH,WindSpeedGustMPH,Humidity,HourlyPrecipIn,Conditions,Clouds,dailyrainin,SoftwareType,DateUTC
2013-12-21 00:01:00,50.0,-40.0,30.04,South,180,2.0,8.0,0,0.00,,,0.00,Rainwise IP-100,2013-12-21 05:01:00,
2013-12-21 00:02:00,50.0,-40.0,30.04,SW,225,4.0,8.0,0,0.00,,,0.00,Rainwise IP-100,2013-12-21 05:02:00,
2013-12-21 00:04:00,49.0,-40.0,30.04,SW,225,11.0,18.0,0,0.00,,,0.00,Rainwise IP-100,2013-12-21 05:04:00,
2013-12-21 00:06:00,49.0,-40.0,30.04,South,180,2.0,18.0,0,0.00,,,0.00,Rainwise IP-100,2013-12-21 05:06:00,
2013-12-21 00:11:00,49.0,-40.0,30.04,South,180,2.0,4.0,0,0.00,,,0.00,Rainwise IP-100,2013-12-21 05:11:00,
2013-12-21 00:16:00,50.0,-40.0,30.04,WNW,292,2.0,9.0,0,0.00,,,0.00,Rainwise IP-100,2013-12-21 05:16:00,
2013-12-21 00:21:00,50.0,-40.0,30.04,SSW,202,7.0,7.0,0,0.00,,,0.00,Rainwise IP-100,2013-12-21 05:21:00,
2013-12-21 00:26:00,50.0,-40.0,30.04,WSW,247,3.0,12.0,0,0.00,,,0.00,Rainwise IP-100,2013-12-21 05:26:00,
2013-12-21 00:31:00,50.0,-40.0,30.04,SSW,202,4.0,11.0,0,0.00,,,0.00,Rainwise IP-100,2013-12-21 05:31:00,
2013-12-21 00:36:00,50.0,-40.0,30.04,SSW,202,10.0,13.0,0,0.00,,,0.00,Rainwise IP-100,2013-12-21 05:36:00,
2013-12-21 00:41:00,50.0,-40.0,30.04,WSW,247,1.0,14.0,0,0.00,,,0.00,Rainwise IP-100,2013-12-21 05:41:00,
2013-12-21 00:46:00,50.0,-40.0,30.04,West,270,4.0,16.0,0,0.00,,,0.00,Rainwise IP-100,2013-12-21 05:46:00,
2013-12-21 00:51:00,50.0,-40.0,30.04,SW,225,7.0,16.0,0,0.00,,,0.00,Rainwise IP-100,2013-12-21 05:51:00,
2013-12-21 00:56:00,50.0,-40.0,30.04,SW,225,8.0,8.0,0,0.00,,,0.00,Rainwise IP-100,2013-12-21 05:56:00,
2013-12-21 01:01:00,50.0,-40.0,30.04,SSW,202,9.0,16.0,0,0.00,,,0.00,Rainwise IP-100,2013-12-21 06:01:00,
2013-12-21 01:06:00,50.0,-40.0,30.04,SW,225,7.0,10.0,0,0.00,,,0.00,Rainwise IP-100,2013-12-21 06:06:00,
2013-12-21 01:12:00,50.0,-40.0,30.04,SSW,202,0.0,8.0,0,0.00,,,0.00,Rainwise IP-100,2013-12-21 06:12:00,
2013-12-21 01:17:00,50.0,-40.0,30.04,SW,225,6.0,8.0,0,0.00,,,0.00,Rainwise IP-100,2013-12-21 06:17:00,
2013-12-21 01:22:00,50.0,-40.0,30.04,SSW,202,2.0,8.0,0,0.00,,,0.00,Rainwise IP-100,2013-12-21 06:22:00,
2013-12-21 01:27:00,50.0,-40.0,30.04,SW,225,6.0,13.0,0,0.00,,,0.00,Rainwise IP-100,2013-12-21 06:27:00,
2013-12-21 01:32:00,50.0,-40.0,30.04,SW,225,9.0,9.0,0,0.00,,,0.00,Rainwise IP-100,2013-12-21 06:32:00,
2013-12-21 01:33:00,50.0,-40.0,30.04,SSW,202,3.0,9.0,0,0.00,,,0.00,Rainwise IP-100,2013-12-21 06:33:00,
2013-12-21 01:38:00,50.0,-40.0,30.04,SW,225,7.0,10.0,0,0.00,,,0.00,Rainwise IP-100,2013-12-21 06:38:00,
2013-12-21 01:43:00,50.0,-40.0,30.03,SW,225,3.0,10.0,0,0.00,,,0.00,Rainwise IP-100,2013-12-21 06:43:00,
2013-12-21 01:48:00,50.0,-40.0,30.03,SW,225,5.0,16.0,0,0.00,,,0.00,Rainwise IP-100,2013-12-21 06:48:00,
2013-12-21 01:53:00,51.0,-40.0,30.02,SW,225,9.0,11.0,0,0.00,,,0.00,Rainwise IP-100,2013-12-21 06:53:00,
2013-12-21 01:58:00,51.0,-40.0,30.02,SSW,202,6.0,14.0,0,0.00,,,0.00,Rainwise IP-100,2013-12-21 06:58:00,
2013-12-21 02:03:00,51.0,-40.0,30.02,SW,225,0.0,13.0,0,0.00,,,0.00,Rainwise IP-100,2013-12-21 07:03:00,
2013-12-21 02:08:00,51.0,-40.0,30.02,SW,225,3.0,10.0,0,0.00,,,0.00,Rainwise IP-100,2013-12-21 07:08:00,
2013-12-21 02:13:00,51.0,-40.0,30.02,SE,135,0.0,14.0,0,0.00,,,0.00,Rainwise IP-100,2013-12-21 07:13:00,
2013-12-21 02:18:00,51.0,-40.0,30.02,SW,225,10.0,13.0,0,0.00,,,0.00,Rainwise IP-100,2013-12-21 07:18:00,
2013-12-21 02:23:00,51.0,-40.0,30.02,SW,225,12.0,15.0,0,0.00,,,0.00,Rainwise IP-100,2013-12-21 07:23:00,
2013-12-21 02:28:00,51.0,-40.0,30.02,SSW,202,7.0,17.0,0,0.00,,,0.00,Rainwise IP-100,2013-12-21 07:28:00,
2013-12-21 02:33:00,51.0,-40.0,30.02,WSW,247,10.0,15.0,0,0.00,,,0.00,Rainwise IP-100,2013-12-21 07:33:00,
2013-12-21 02:38:00,51.0,-40.0,30.02,SSE,157,3.0,19.0,0,0.00,,,0.00,Rainwise IP-100,2013-12-21 07:38:00,
2013-12-21 02:44:00,51.0,-40.0,30.03,SSW,202,6.0,14.0,0,0.00,,,0.00,Rainwise IP-100,2013-12-21 07:44:00,
2013-12-21 02:49:00,51.0,-40.0,30.03,WSW,247,6.0,15.0,0,0.00,,,0.00,Rainwise IP-100,2013-12-21 07:49:00,
2013-12-21 02:54:00,51.0,-40.0,30.02,SW,225,5.0,13.0,0,0.00,,,0.00,Rainwise IP-100,2013-12-21 07:54:00,
2013-12-21 02:59:00,51.0,-40.0,30.02,SW,225,4.0,6.0,0,0.00,,,0.00,Rainwise IP-100,2013-12-21 07:59:00,
2013-12-21 03:04:00,51.0,-40.0,30.02,SW,225,4.0,12.0,0,0.00,,,0.00,Rainwise IP-100,2013-12-21 08:04:00,
2013-12-21 03:09:00,51.0,-40.0,30.02,SW,225,7.0,12.0,0,0.00,,,0.00,Rainwise IP-100,2013-12-21 08:09:00,
2013-12-21 03:14:00,51.0,-40.0,30.02,SSW,202,6.0,15.0,0,0.00,,,0.00,Rainwise IP-100,2013-12-21 08:14:00,
2013-12-21 03:19:00,51.0,-40.0,30.01,WSW,247,1.0,15.0,0,0.00,,,0.00,Rainwise IP-100,2013-12-21 08:19:00,
2013-12-21 03:24:00,51.0,-40.0,30.01,SW,225,16.0,16.0,0,0.00,,,0.00,Rainwise IP-100,2013-12-21 08:24:00,
2013-12-21 03:29:00,51.0,-40.0,30.01,SW,225,1.0,16.0,0,0.00,,,0.00,Rainwise IP-100,2013-12-21 08:29:00,
2013-12-21 03:34:00,51.0,-40.0,30.01,South,180,8.0,12.0,0,0.00,,,0.00,Rainwise IP-100,2013-12-21 08:34:00,
2013-12-21 03:39:00,51.0,-40.0,30.01,South,180,10.0,15.0,0,0.00,,,0.00,Rainwise IP-100,2013-12-21 08:39:00,
2013-12-21 03:44:00,51.0,-40.0,30.01,SW,225,10.0,10.0,0,0.00,,,0.00,Rainwise IP-100,2013-12-21 08:44:00,
2013-12-21 03:49:00,51.0,-40.0,30.02,WSW,247,0.0,15.0,0,0.00,,,0.00,Rainwise IP-100,2013-12-21 08:49:00,
2013-12-21 03:54:00,51.0,-40.0,30.02,SW,225,7.0,13.0,0,0.00,,,0.00,Rainwise IP-100,2013-12-21 08:54:00,
2013-12-21 04:00:00,51.0,-40.0,30.01,SSW,202,6.0,16.0,0,0.00,,,0.00,Rainwise IP-100,2013-12-21 09:00:00,
2013-12-21 04:05:00,51.0,-40.0,30.01,SW,225,6.0,9.0,0,0.00,,,0.00,Rainwise IP-100,2013-12-21 09:05:00,
2013-12-21 04:10:00,51.0,-40.0,30.01,SW,225,6.0,11.0,0,0.00,,,0.00,Rainwise IP-100,2013-12-21 09:10:00,
2013-12-21 04:15:00,51.0,-40.0,30.02,WSW,247,6.0,11.0,0,0.00,,,0.00,Rainwise IP-100,2013-12-21 09:15:00,
2013-12-21 04:20:00,51.0,-40.0,30.02,WSW,247,4.0,8.0,0,0.00,,,0.00,Rainwise IP-100,2013-12-21 09:20:00,
2013-12-21 04:25:00,51.0,-40.0,30.02,South,180,3.0,13.0,0,0.00,,,0.00,Rainwise IP-100,2013-12-21 09:25:00,
2013-12-21 04:30:00,51.0,-40.0,30.02,NW,315,1.0,10.0,0,0.00,,,0.00,Rainwise IP-100,2013-12-21 09:30:00,
2013-12-21 04:35:00,51.0,-40.0,30.02,SW,225,13.0,14.0,0,0.00,,,0.00,Rainwise IP-100,2013-12-21 09:35:00,
2013-12-21 04:40:00,51.0,-40.0,30.02,SW,225,3.0,14.0,0,0.00,,,0.00,Rainwise IP-100,2013-12-21 09:40:00,
2013-12-21 04:45:00,51.0,-40.0,30.02,North,360,1.0,7.0,0,0.00,,,0.00,Rainwise IP-100,2013-12-21 09:45:00,
2013-12-21 04:50:00,51.0,-40.0,30.03,WSW,247,7.0,12.0,0,0.00,,,0.00,Rainwise IP-100,2013-12-21 09:50:00,
2013-12-21 04:55:00,51.0,-40.0,30.03,SSW,202,6.0,12.0,0,0.00,,,0.00,Rainwise IP-100,2013-12-21 09:55:00,
2013-12-21 05:00:00,51.0,-40.0,30.03,SW,225,1.0,10.0,0,0.00,,,0.00,Rainwise IP-100,2013-12-21 10:00:00,
2013-12-21 05:05:00,51.0,-40.0,30.03,SSW,202,1.0,10.0,0,0.00,,,0.00,Rainwise IP-100,2013-12-21 10:05:00,
2013-12-21 05:10:00,51.0,-40.0,30.02,SW,225,7.0,12.0,0,0.00,,,0.00,Rainwise IP-100,2013-12-21 10:10:00,
2013-12-21 05:16:00,51.0,-40.0,30.02,South,180,6.0,16.0,0,0.00,,,0.00,Rainwise IP-100,2013-12-21 10:16:00,
2013-12-21 05:21:00,51.0,-40.0,30.02,WSW,247,9.0,13.0,0,0.00,,,0.00,Rainwise IP-100,2013-12-21 10:21:00,
2013-12-21 05:26:00,51.0,-40.0,30.02,WSW,247,10.0,14.0,0,0.00,,,0.00,Rainwise IP-100,2013-12-21 10:26:00,
2013-12-21 05:31:00,51.0,-40.0,30.02,SW,225,6.0,16.0,0,0.00,,,0.00,Rainwise IP-100,2013-12-21 10:31:00,
2013-12-21 05:36:00,51.0,-40.0,30.02,WSW,247,6.0,16.0,0,0.00,,,0.00,Rainwise IP-100,2013-12-21 10:36:00,
2013-12-21 05:41:00,51.0,-40.0,30.02,WSW,247,7.0,15.0,0,0.00,,,0.00,Rainwise IP-100,2013-12-21 10:41:00,
2013-12-21 05:46:00,51.0,-40.0,30.02,West,270,6.0,12.0,0,0.00,,,0.00,Rainwise IP-100,2013-12-21 10:46:00,
2013-12-21 05:51:00,51.0,-40.0,30.02,SE,135,0.0,10.0,0,0.00,,,0.00,Rainwise IP-100,2013-12-21 10:51:00,
2013-12-21 05:56:00,51.0,-40.0,30.02,East,90,1.0,3.0,0,0.00,,,0.00,Rainwise IP-100,2013-12-21 10:56:00,
2013-12-21 06:01:00,52.0,-40.0,30.02,WSW,247,3.0,10.0,0,0.00,,,0.00,Rainwise IP-100,2013-12-21 11:01:00,
2013-12-21 06:06:00,52.0,-40.0,30.02,SE,135,2.0,12.0,0,0.00,,,0.00,Rainwise IP-100,2013-12-21 11:06:00,
2013-12-21 06:11:00,52.0,-40.0,30.02,SSW,202,7.0,12.0,0,0.00,,,0.00,Rainwise IP-100,2013-12-21 11:11:00,
2013-12-21 06:16:00,51.0,-40.0,30.02,South,180,6.0,9.0,0,0.00,,,0.00,Rainwise IP-100,2013-12-21 11:16:00,
2013-12-21 06:21:00,51.0,-40.0,30.03,SSW,202,0.0,10.0,0,0.00,,,0.00,Rainwise IP-100,2013-12-21 11:21:00,
2013-12-21 06:26:00,51.0,-40.0,30.03,SW,225,7.0,11.0,0,0.00,,,0.00,Rainwise IP-100,2013-12-21 11:26:00,
2013-12-21 06:32:00,51.0,-40.0,30.03,West,270,0.0,7.0,0,0.00,,,0.00,Rainwise IP-100,2013-12-21 11:32:00,
2013-12-21 06:37:00,50.0,-40.0,30.03,South,180,4.0,12.0,0,0.00,,,0.00,Rainwise IP-100,2013-12-21 11:37:00,
2013-12-21 06:42:00,50.0,-40.0,30.04,SW,225,9.0,12.0,0,0.00,,,0.00,Rainwise IP-100,2013-12-21 11:42:00,
2013-12-21 06:47:00,50.0,-40.0,30.04,West,270,1.0,9.0,0,0.00,,,0.00,Rainwise IP-100,2013-12-21 11:47:00,
2013-12-21 06:52:00,50.0,-40.0,30.04,WSW,247,0.0,8.0,0,0.00,,,0.00,Rainwise IP-100,2013-12-21 11:52:00,
2013-12-21 06:57:00,50.0,-40.0,30.04,West,270,1.0,9.0,0,0.00,,,0.00,Rainwise IP-100,2013-12-21 11:57:00,
2013-12-21 07:02:00,50.0,-40.0,30.04,WSW,247,0.0,4.0,0,0.00,,,0.00,Rainwise IP-100,2013-12-21 12:02:00,
2013-12-21 07:07:00,50.0,-40.0,30.05,SW,225,5.0,12.0,0,0.00,,,0.00,Rainwise IP-100,2013-12-21 12:07:00,
2013-12-21 07:12:00,50.0,-40.0,30.05,SW,225,4.0,12.0,0,0.00,,,0.00,Rainwise IP-100,2013-12-21 12:12:00,
2013-12-21 07:17:00,50.0,-40.0,30.05,SSW,202,1.0,10.0,0,0.00,,,0.00,Rainwise IP-100,2013-12-21 12:17:00,
2013-12-21 07:22:00,50.0,-40.0,30.05,SSW,202,7.0,10.0,0,0.00,,,0.00,Rainwise IP-100,2013-12-21 12:22:00,
2013-12-21 07:27:00,50.0,-40.0,30.05,West,270,0.0,10.0,0,0.00,,,0.00,Rainwise IP-100,2013-12-21 12:27:00,
2013-12-21 07:32:00,50.0,-40.0,30.05,SSW,202,9.0,12.0,0,0.00,,,0.00,Rainwise IP-100,2013-12-21 12:32:00,
2013-12-21 07:37:00,50.0,-40.0,30.05,SW,225,5.0,12.0,0,0.00,,,0.00,Rainwise IP-100,2013-12-21 12:37:00,
2013-12-21 07:42:00,50.0,-40.0,30.06,WNW,292,9.0,14.0,0,0.00,,,0.00,Rainwise IP-100,2013-12-21 12:42:00,
2013-12-21 07:48:00,50.0,-40.0,30.06,SW,225,5.0,9.0,0,0.00,,,0.00,Rainwise IP-100,2013-12-21 12:48:00,
2013-12-21 07:53:00,50.0,-40.0,30.06,SW,225,2.0,12.0,0,0.00,,,0.00,Rainwise IP-100,2013-12-21 12:53:00,
2013-12-21 07:58:00,51.0,-40.0,30.06,SSW,202,10.0,12.0,0,0.00,,,0.00,Rainwise IP-100,2013-12-21 12:58:00,
2013-12-21 08:03:00,51.0,-40.0,30.06,SW,225,1.0,11.0,0,0.00,,,0.00,Rainwise IP-100,2013-12-21 13:03:00,
2013-12-21 08:08:00,51.0,-40.0,30.06,South,180,10.0,12.0,0,0.00,,,0.00,Rainwise IP-100,2013-12-21 13:08:00,
2013-12-21 08:13:00,51.0,-40.0,30.06,SW,225,0.0,13.0,0,0.00,,,0.00,Rainwise IP-100,2013-12-21 13:13:00,
2013-12-21 08:18:00,51.0,-40.0,30.06,SW,225,9.0,19.0,0,0.00,,,0.00,Rainwise IP-100,2013-12-21 13:18:00,
2013-12-21 08:23:00,52.0,-40.0,30.05,SSW,202,9.0,15.0,0,0.00,,,0.00,Rainwise IP-100,2013-12-21 13:23:00,
2013-12-21 08:28:00,52.0,-40.0,30.05,SSW,202,7.0,15.0,0,0.00,,,0.00,Rainwise IP-100,2013-12-21 13:28:00,
2013-12-21 08:33:00,51.0,-40.0,30.06,WSW,247,7.0,15.0,0,0.00,,,0.00,Rainwise IP-100,2013-12-21 13:33:00,
2013-12-21 08:38:00,51.0,-40.0,30.06,SW,225,7.0,16.0,0,0.00,,,0.00,Rainwise IP-100,2013-12-21 13:38:00,
2013-12-21 08:43:00,52.0,-40.0,30.05,SW,225,9.0,10.0,0,0.00,,,0.00,Rainwise IP-100,2013-12-21 13:43:00,
2013-12-21 08:48:00,52.0,-40.0,30.05,SW,225,9.0,14.0,0,0.00,,,0.00,Rainwise IP-100,2013-12-21 13:48:00,
2013-12-21 08:53:00,52.0,-40.0,30.05,SSW,202,3.0,13.0,0,0.00,,,0.00,Rainwise IP-100,2013-12-21 13:53:00,
2013-12-21 08:58:00,52.0,-40.0,30.05,South,180,9.0,12.0,0,0.00,,,0.00,Rainwise IP-100,2013-12-21 13:58:00,
2013-12-21 09:04:00,52.0,-40.0,30.05,SW,225,13.0,13.0,0,0.00,,,0.00,Rainwise IP-100,2013-12-21 14:04:00,
2013-12-21 09:09:00,52.0,-40.0,30.05,WSW,247,11.0,14.0,0,0.00,,,0.00,Rainwise IP-100,2013-12-21 14:09:00,
2013-12-21 09:14:00,52.0,-40.0,30.05,WSW,247,12.0,12.0,0,0.00,,,0.00,Rainwise IP-100,2013-12-21 14:14:00,
2013-12-21 09:19:00,52.0,-40.0,30.05,SW,225,6.0,12.0,0,0.00,,,0.00,Rainwise IP-100,2013-12-21 14:19:00,
2013-12-21 09:24:00,53.0,-40.0,30.06,WSW,247,10.0,12.0,0,0.00,,,0.00,Rainwise IP-100,2013-12-21 14:24:00,
2013-12-21 09:29:00,54.0,-40.0,30.06,SW,225,7.0,14.0,0,0.00,,,0.00,Rainwise IP-100,2013-12-21 14:29:00,
2013-12-21 09:34:00,54.0,-40.0,30.06,WSW,247,10.0,10.0,0,0.00,,,0.00,Rainwise IP-100,2013-12-21 14:34:00,
2013-12-21 09:39:00,54.0,-40.0,30.05,SW,225,22.0,22.0,0,0.00,,,0.00,Rainwise IP-100,2013-12-21 14:39:00,
2013-12-21 09:44:00,54.0,-40.0,30.05,South,180,11.0,22.0,0,0.00,,,0.00,Rainwise IP-100,2013-12-21 14:44:00,
2013-12-21 09:49:00,54.0,-40.0,30.05,SW,225,6.0,15.0,0,0.00,,,0.00,Rainwise IP-100,2013-12-21 14:49:00,
2013-12-21 09:54:00,54.0,-40.0,30.06,WSW,247,8.0,18.0,0,0.00,,,0.00,Rainwise IP-100,2013-12-21 14:54:00,
2013-12-21 09:59:00,54.0,-40.0,30.06,NW,315,7.0,15.0,0,0.00,,,0.00,Rainwise IP-100,2013-12-21 14:59:00,
2013-12-21 10:04:00,54.0,-40.0,30.06,SW,225,2.0,13.0,0,0.00,,,0.00,Rainwise IP-100,2013-12-21 15:04:00,
2013-12-21 10:09:00,54.0,-40.0,30.06,SW,225,2.0,7.0,0,0.00,,,0.00,Rainwise IP-100,2013-12-21 15:09:00,
2013-12-21 10:14:00,54.0,-40.0,30.06,SSE,157,5.0,9.0,0,0.00,,,0.00,Rainwise IP-100,2013-12-21 15:14:00,
2013-12-21 10:20:00,54.0,-40.0,30.06,SSW,202,0.0,9.0,0,0.00,,,0.00,Rainwise IP-100,2013-12-21 15:20:00,
2013-12-21 10:25:00,54.0,-40.0,30.06,ESE,112,2.0,7.0,0,0.00,,,0.00,Rainwise IP-100,2013-12-21 15:25:00,
2013-12-21 10:30:00,54.0,-40.0,30.06,ESE,112,1.0,7.0,0,0.00,,,0.00,Rainwise IP-100,2013-12-21 15:30:00,
2013-12-21 10:35:00,54.0,-40.0,30.04,SW,225,13.0,16.0,0,0.00,,,0.00,Rainwise IP-100,2013-12-21 15:35:00,
2013-12-21 10:40:00,54.0,-40.0,30.04,SW,225,1.0,16.0,0,0.00,,,0.00,Rainwise IP-100,2013-12-21 15:40:00,
2013-12-21 10:45:00,54.0,-40.0,30.04,SW,225,10.0,13.0,0,0.00,,,0.00,Rainwise IP-100,2013-12-21 15:45:00,
2013-12-21 10:50:00,55.0,-40.0,30.04,SW,225,6.0,13.0,0,0.00,,,0.00,Rainwise IP-100,2013-12-21 15:50:00,
2013-12-21 10:55:00,55.0,-40.0,30.04,SSW,202,9.0,13.0,0,0.00,,,0.00,Rainwise IP-100,2013-12-21 15:55:00,
2013-12-21 11:00:00,55.0,-40.0,30.03,SW,225,9.0,13.0,0,0.00,,,0.00,Rainwise IP-100,2013-12-21 16:00:00,
2013-12-21 11:05:00,55.0,-40.0,30.03,SSW,202,7.0,10.0,0,0.00,,,0.00,Rainwise IP-100,2013-12-21 16:05:00,
2013-12-21 11:10:00,55.0,-40.0,30.03,SW,225,14.0,14.0,0,0.00,,,0.00,Rainwise IP-100,2013-12-21 16:10:00,
2013-12-21 11:15:00,55.0,-40.0,30.03,WSW,247,12.0,14.0,0,0.00,,,0.00,Rainwise IP-100,2013-12-21 16:15:00,
2013-12-21 11:20:00,55.0,-40.0,30.02,WSW,247,10.0,14.0,0,0.00,,,0.00,Rainwise IP-100,2013-12-21 16:20:00,
2013-12-21 11:25:00,55.0,-40.0,30.02,West,270,7.0,11.0,0,0.00,,,0.00,Rainwise IP-100,2013-12-21 16:25:00,
2013-12-21 11:30:00,55.0,-40.0,30.02,South,180,7.0,11.0,0,0.00,,,0.00,Rainwise IP-100,2013-12-21 16:30:00,
2013-12-21 11:36:00,55.0,-40.0,30.02,South,180,4.0,17.0,0,0.00,,,0.00,Rainwise IP-100,2013-12-21 16:36:00,
2013-12-21 11:41:00,55.0,-40.0,30.02,SW,225,7.0,17.0,0,0.00,,,0.00,Rainwise IP-100,2013-12-21 16:41:00,
2013-12-21 11:46:00,54.0,-40.0,30.01,SW,225,7.0,17.0,0,0.00,,,0.00,Rainwise IP-100,2013-12-21 16:46:00,
2013-12-21 11:51:00,54.0,-40.0,30.02,SSW,202,8.0,13.0,0,0.00,,,0.00,Rainwise IP-100,2013-12-21 16:51:00,
2013-12-21 11:56:00,54.0,-40.0,30.02,South,180,15.0,15.0,0,0.00,,,0.00,Rainwise IP-100,2013-12-21 16:56:00,
2013-12-21 12:01:00,55.0,-40.0,30.01,WSW,247,4.0,17.0,0,0.00,,,0.00,Rainwise IP-100,2013-12-21 17:01:00,
2013-12-21 12:06:00,55.0,-40.0,30.01,SW,225,11.0,12.0,0,0.00,,,0.00,Rainwise IP-100,2013-12-21 17:06:00,
2013-12-21 12:11:00,55.0,-40.0,30.01,SW,225,10.0,16.0,0,0.00,,,0.00,Rainwise IP-100,2013-12-21 17:11:00,
2013-12-21 12:16:00,55.0,-40.0,30.01,SW,225,8.0,16.0,0,0.00,,,0.00,Rainwise IP-100,2013-12-21 17:16:00,
2013-12-21 12:21:00,55.0,-40.0,30.01,SW,225,6.0,16.0,0,0.00,,,0.00,Rainwise IP-100,2013-12-21 17:21:00,
2013-12-21 12:26:00,55.0,-40.0,30.01,SSW,202,13.0,15.0,0,0.00,,,0.00,Rainwise IP-100,2013-12-21 17:26:00,
2013-12-21 12:31:00,55.0,-40.0,30.01,SSW,202,7.0,15.0,0,0.00,,,0.00,Rainwise IP-100,2013-12-21 17:31:00,
2013-12-21 12:36:00,54.0,-40.0,30.01,North,360,3.0,15.0,0,0.00,,,0.00,Rainwise IP-100,2013-12-21 17:36:00,
2013-12-21 12:41:00,54.0,-40.0,30.01,SW,225,9.0,13.0,0,0.00,,,0.00,Rainwise IP-100,2013-12-21 17:41:00,
2013-12-21 12:46:00,54.0,-40.0,30.01,SW,225,12.0,16.0,0,0.00,,,0.00,Rainwise IP-100,2013-12-21 17:46:00,
2013-12-21 12:52:00,54.0,-40.0,30.01,SW,225,12.0,16.0,0,0.00,,,0.00,Rainwise IP-100,2013-12-21 17:52:00,
2013-12-21 12:57:00,54.0,-40.0,30.00,SW,225,9.0,16.0,0,0.00,,,0.00,Rainwise IP-100,2013-12-21 17:57:00,
2013-12-21 13:02:00,55.0,-40.0,29.99,WSW,247,4.0,15.0,0,0.00,,,0.00,Rainwise IP-100,2013-12-21 18:02:00,
2013-12-21 13:07:00,55.0,-40.0,29.99,East,90,1.0,12.0,0,0.00,,,0.00,Rainwise IP-100,2013-12-21 18:07:00,
2013-12-21 13:12:00,56.0,-40.0,29.99,SW,225,2.0,12.0,0,0.00,,,0.00,Rainwise IP-100,2013-12-21 18:12:00,
2013-12-21 13:17:00,55.0,-40.0,29.99,South,180,4.0,16.0,0,0.00,,,0.00,Rainwise IP-100,2013-12-21 18:17:00,
2013-12-21 13:22:00,55.0,-40.0,29.99,East,90,3.0,9.0,0,0.00,,,0.00,Rainwise IP-100,2013-12-21 18:22:00,
2013-12-21 13:27:00,55.0,-40.0,29.99,SW,225,12.0,13.0,0,0.00,,,0.00,Rainwise IP-100,2013-12-21 18:27:00,
2013-12-21 13:32:00,55.0,-40.0,30.00,West,270,3.0,15.0,0,0.00,,,0.00,Rainwise IP-100,2013-12-21 18:32:00,
2013-12-21 13:37:00,54.0,-40.0,30.00,SW,225,6.0,16.0,0,0.00,,,0.00,Rainwise IP-100,2013-12-21 18:37:00,
2013-12-21 13:42:00,54.0,-40.0,30.00,SW,225,6.0,9.0,0,0.00,,,0.00,Rainwise IP-100,2013-12-21 18:42:00,
2013-12-21 13:47:00,54.0,-40.0,30.00,SSE,157,5.0,13.0,0,0.00,,,0.00,Rainwise IP-100,2013-12-21 18:47:00,
2013-12-21 13:52:00,54.0,-40.0,30.00,West,270,12.0,12.0,0,0.00,,,0.00,Rainwise IP-100,2013-12-21 18:52:00,
2013-12-21 13:57:00,53.0,-40.0,29.99,SSW,202,12.0,16.0,0,0.00,,,0.00,Rainwise IP-100,2013-12-21 18:57:00,
2013-12-21 14:02:00,54.0,-40.0,29.98,WSW,247,6.0,16.0,0,0.00,,,0.00,Rainwise IP-100,2013-12-21 19:02:00,
2013-12-21 14:08:00,54.0,-40.0,29.98,SW,225,5.0,14.0,0,0.00,,,0.00,Rainwise IP-100,2013-12-21 19:08:00,
2013-12-21 14:13:00,54.0,-40.0,29.99,SW,225,7.0,15.0,0,0.00,,,0.00,Rainwise IP-100,2013-12-21 19:13:00,
2013-12-21 14:18:00,54.0,-40.0,29.99,SSE,157,1.0,16.0,0,0.00,,,0.00,Rainwise IP-100,2013-12-21 19:18:00,
2013-12-21 14:23:00,54.0,-40.0,29.98,SSW,202,6.0,16.0,0,0.00,,,0.00,Rainwise IP-100,2013-12-21 19:23:00,
2013-12-21 14:28:00,54.0,-40.0,29.98,SSW,202,9.0,11.0,0,0.00,,,0.00,Rainwise IP-100,2013-12-21 19:28:00,
2013-12-21 14:33:00,54.0,-40.0,29.99,SSW,202,8.0,14.0,0,0.00,,,0.00,Rainwise IP-100,2013-12-21 19:33:00,
2013-12-21 14:38:00,54.0,-40.0,29.99,SW,225,11.0,20.0,0,0.00,,,0.00,Rainwise IP-100,2013-12-21 19:38:00,
2013-12-21 14:43:00,54.0,-40.0,29.99,SW,225,10.0,15.0,0,0.00,,,0.00,Rainwise IP-100,2013-12-21 19:43:00,
2013-12-21 14:48:00,54.0,-40.0,29.99,SW,225,6.0,20.0,0,0.00,,,0.00,Rainwise IP-100,2013-12-21 19:48:00,
2013-12-21 14:53:00,54.0,-40.0,29.99,South,180,4.0,20.0,0,0.00,,,0.00,Rainwise IP-100,2013-12-21 19:53:00,
2013-12-21 14:58:00,54.0,-40.0,29.99,SSW,202,5.0,12.0,0,0.00,,,0.00,Rainwise IP-100,2013-12-21 19:58:00,
2013-12-21 15:03:00,55.0,-40.0,29.98,SSW,202,10.0,16.0,0,0.00,,,0.00,Rainwise IP-100,2013-12-21 20:03:00,
2013-12-21 15:08:00,55.0,-40.0,29.98,South,180,3.0,15.0,0,0.00,,,0.00,Rainwise IP-100,2013-12-21 20:08:00,
2013-12-21 15:13:00,55.0,-40.0,29.98,SSW,202,7.0,15.0,0,0.00,,,0.00,Rainwise IP-100,2013-12-21 20:13:00,
2013-12-21 15:18:00,54.0,-40.0,29.98,SSW,202,6.0,13.0,0,0.00,,,0.00,Rainwise IP-100,2013-12-21 20:18:00,
2013-12-21 15:24:00,54.0,-40.0,29.98,SW,225,10.0,13.0,0,0.00,,,0.00,Rainwise IP-100,2013-12-21 20:24:00,
2013-12-21 15:29:00,54.0,-40.0,29.98,SE,135,4.0,15.0,0,0.00,,,0.00,Rainwise IP-100,2013-12-21 20:29:00,
2013-12-21 15:34:00,53.0,-40.0,29.99,SSW,202,12.0,15.0,0,0.00,,,0.00,Rainwise IP-100,2013-12-21 20:34:00,
2013-12-21 15:39:00,53.0,-40.0,29.99,SW,225,13.0,17.0,0,0.00,,,0.00,Rainwise IP-100,2013-12-21 20:39:00,
2013-12-21 15:44:00,53.0,-40.0,29.99,SW,225,10.0,13.0,0,0.00,,,0.00,Rainwise IP-100,2013-12-21 20:44:00,
2013-12-21 15:49:00,53.0,-40.0,29.99,SSW,202,15.0,15.0,0,0.00,,,0.00,Rainwise IP-100,2013-12-21 20:49:00,
2013-12-21 15:54:00,53.0,-40.0,29.99,SSW,202,8.0,15.0,0,0.00,,,0.00,Rainwise IP-100,2013-12-21 20:54:00,
2013-12-21 15:59:00,53.0,-40.0,29.99,WSW,247,6.0,11.0,0,0.00,,,0.00,Rainwise IP-100,2013-12-21 20:59:00,
2013-12-21 16:04:00,53.0,-40.0,29.99,WSW,247,7.0,10.0,0,0.00,,,0.00,Rainwise IP-100,2013-12-21 21:04:00,
2013-12-21 16:09:00,53.0,-40.0,29.99,SW,225,6.0,16.0,0,0.00,,,0.00,Rainwise IP-100,2013-12-21 21:09:00,
2013-12-21 16:14:00,52.0,-40.0,29.99,SSW,202,12.0,15.0,0,0.00,,,0.00,Rainwise IP-100,2013-12-21 21:14:00,
2013-12-21 16:19:00,52.0,-40.0,29.99,SSE,157,5.0,13.0,0,0.00,,,0.00,Rainwise IP-100,2013-12-21 21:19:00,
2013-12-21 16:24:00,52.0,-40.0,30.00,SSW,202,7.0,11.0,0,0.00,,,0.00,Rainwise IP-100,2013-12-21 21:24:00,
2013-12-21 16:29:00,52.0,-40.0,30.00,SSW,202,9.0,14.0,0,0.00,,,0.00,Rainwise IP-100,2013-12-21 21:29:00,
2013-12-21 16:34:00,52.0,-40.0,30.00,South,180,14.0,14.0,0,0.00,,,0.00,Rainwise IP-100,2013-12-21 21:34:00,
2013-12-21 16:40:00,52.0,-40.0,30.00,South,180,7.0,14.0,0,0.00,,,0.00,Rainwise IP-100,2013-12-21 21:40:00,
2013-12-21 16:45:00,52.0,-40.0,30.00,SSW,202,6.0,14.0,0,0.00,,,0.00,Rainwise IP-100,2013-12-21 21:45:00,
2013-12-21 16:50:00,52.0,-40.0,30.00,SSW,202,7.0,14.0,0,0.00,,,0.00,Rainwise IP-100,2013-12-21 21:50:00,
2013-12-21 16:55:00,52.0,-40.0,30.00,SW,225,6.0,12.0,0,0.00,,,0.00,Rainwise IP-100,2013-12-21 21:55:00,
2013-12-21 17:00:00,51.0,-40.0,30.00,SW,225,8.0,13.0,0,0.00,,,0.00,Rainwise IP-100,2013-12-21 22:00:00,
2013-12-21 17:05:00,51.0,-40.0,30.00,SSW,202,10.0,14.0,0,0.00,,,0.00,Rainwise IP-100,2013-12-21 22:05:00,
2013-12-21 17:10:00,51.0,-40.0,30.00,South,180,7.0,14.0,0,0.00,,,0.00,Rainwise IP-100,2013-12-21 22:10:00,
2013-12-21 17:15:00,51.0,-40.0,30.01,SW,225,7.0,17.0,0,0.00,,,0.00,Rainwise IP-100,2013-12-21 22:15:00,
2013-12-21 17:20:00,51.0,-40.0,30.00,South,180,8.0,14.0,0,0.00,,,0.00,Rainwise IP-100,2013-12-21 22:20:00,
2013-12-21 17:25:00,51.0,-40.0,30.00,SW,225,15.0,15.0,0,0.00,,,0.00,Rainwise IP-100,2013-12-21 22:25:00,
2013-12-21 17:30:00,51.0,-40.0,30.01,WSW,247,7.0,15.0,0,0.00,,,0.00,Rainwise IP-100,2013-12-21 22:30:00,
2013-12-21 17:35:00,51.0,-40.0,30.01,SW,225,9.0,16.0,0,0.00,,,0.00,Rainwise IP-100,2013-12-21 22:35:00,
2013-12-21 17:40:00,51.0,-40.0,30.01,SW,225,10.0,16.0,0,0.00,,,0.00,Rainwise IP-100,2013-12-21 22:40:00,
2013-12-21 17:45:00,51.0,-40.0,30.01,South,180,4.0,15.0,0,0.00,,,0.00,Rainwise IP-100,2013-12-21 22:45:00,
2013-12-21 17:50:00,51.0,-40.0,30.02,SSW,202,10.0,10.0,0,0.00,,,0.00,Rainwise IP-100,2013-12-21 22:50:00,
2013-12-21 17:56:00,51.0,-40.0,30.02,SSW,202,6.0,14.0,0,0.00,,,0.00,Rainwise IP-100,2013-12-21 22:56:00,
2013-12-21 18:01:00,51.0,-40.0,30.01,SE,135,2.0,14.0,0,0.00,,,0.00,Rainwise IP-100,2013-12-21 23:01:00,
2013-12-21 18:06:00,52.0,-40.0,30.01,SSW,202,6.0,15.0,0,0.00,,,0.00,Rainwise IP-100,2013-12-21 23:06:00,
2013-12-21 18:11:00,52.0,-40.0,30.01,SW,225,14.0,19.0,0,0.00,,,0.00,Rainwise IP-100,2013-12-21 23:11:00,
2013-12-21 18:16:00,52.0,-40.0,30.01,SSW,202,7.0,19.0,0,0.00,,,0.00,Rainwise IP-100,2013-12-21 23:16:00,
2013-12-21 18:21:00,52.0,-40.0,30.01,South,180,8.0,16.0,0,0.00,,,0.00,Rainwise IP-100,2013-12-21 23:21:00,
2013-12-21 18:26:00,52.0,-40.0,30.01,SW,225,12.0,13.0,0,0.00,,,0.00,Rainwise IP-100,2013-12-21 23:26:00,
2013-12-21 18:31:00,52.0,-40.0,30.01,South,180,6.0,14.0,0,0.00,,,0.00,Rainwise IP-100,2013-12-21 23:31:00,
2013-12-21 18:36:00,52.0,-40.0,30.01,SW,225,2.0,11.0,0,0.00,,,0.00,Rainwise IP-100,2013-12-21 23:36:00,
2013-12-21 18:41:00,52.0,-40.0,30.01,SW,225,10.0,15.0,0,0.00,,,0.00,Rainwise IP-100,2013-12-21 23:41:00,
2013-12-21 18:46:00,52.0,-40.0,30.01,SW,225,12.0,15.0,0,0.00,,,0.00,Rainwise IP-100,2013-12-21 23:46:00,
2013-12-21 18:51:00,51.0,-40.0,30.01,SW,225,9.0,15.0,0,0.00,,,0.00,Rainwise IP-100,2013-12-21 23:51:00,
2013-12-21 18:56:00,51.0,-40.0,30.02,South,180,8.0,15.0,0,0.00,,,0.00,Rainwise IP-100,2013-12-21 23:56:00,
2013-12-21 19:01:00,51.0,-40.0,30.01,SSW,202,9.0,17.0,0,0.00,,,0.00,Rainwise IP-100,2013-12-22 00:01:00,
2013-12-21 19:06:00,52.0,-40.0,30.01,WSW,247,9.0,16.0,0,0.00,,,0.00,Rainwise IP-100,2013-12-22 00:06:00,
2013-12-21 19:12:00,52.0,-40.0,30.02,SW,225,8.0,16.0,0,0.00,,,0.00,Rainwise IP-100,2013-12-22 00:12:00,
2013-12-21 19:17:00,52.0,-40.0,30.02,SW,225,6.0,14.0,0,0.00,,,0.00,Rainwise IP-100,2013-12-22 00:17:00,
2013-12-21 19:22:00,52.0,-40.0,30.02,SSW,202,7.0,14.0,0,0.00,,,0.00,Rainwise IP-100,2013-12-22 00:22:00,
2013-12-21 19:27:00,52.0,-40.0,30.02,West,270,10.0,13.0,0,0.00,,,0.00,Rainwise IP-100,2013-12-22 00:27:00,
2013-12-21 19:32:00,52.0,-40.0,30.03,SW,225,9.0,16.0,0,0.00,,,0.00,Rainwise IP-100,2013-12-22 00:32:00,
2013-12-21 19:37:00,52.0,-40.0,30.03,SW,225,4.0,16.0,0,0.00,,,0.00,Rainwise IP-100,2013-12-22 00:37:00,
2013-12-21 19:42:00,52.0,-40.0,30.02,WSW,247,2.0,15.0,0,0.00,,,0.00,Rainwise IP-100,2013-12-22 00:42:00,
2013-12-21 19:47:00,52.0,-40.0,30.02,SW,225,13.0,14.0,0,0.00,,,0.00,Rainwise IP-100,2013-12-22 00:47:00,
2013-12-21 19:52:00,52.0,-40.0,30.02,SSW,202,5.0,13.0,0,0.00,,,0.00,Rainwise IP-100,2013-12-22 00:52:00,
2013-12-21 19:57:00,52.0,-40.0,30.02,WNW,292,2.0,11.0,0,0.00,,,0.00,Rainwise IP-100,2013-12-22 00:57:00,
2013-12-21 20:02:00,52.0,-40.0,30.02,SSW,202,5.0,20.0,0,0.00,,,0.00,Rainwise IP-100,2013-12-22 01:02:00,
2013-12-21 20:07:00,52.0,-40.0,30.02,SSW,202,4.0,13.0,0,0.00,,,0.00,Rainwise IP-100,2013-12-22 01:07:00,
2013-12-21 20:12:00,52.0,-40.0,30.02,WSW,247,10.0,14.0,0,0.00,,,0.00,Rainwise IP-100,2013-12-22 01:12:00,
2013-12-21 20:17:00,52.0,-40.0,30.02,West,270,9.0,16.0,0,0.00,,,0.00,Rainwise IP-100,2013-12-22 01:17:00,
2013-12-21 20:22:00,52.0,-40.0,30.03,SW,225,12.0,13.0,0,0.00,,,0.00,Rainwise IP-100,2013-12-22 01:22:00,
2013-12-21 20:28:00,52.0,-40.0,30.03,SSW,202,7.0,18.0,0,0.00,,,0.00,Rainwise IP-100,2013-12-22 01:28:00,
2013-12-21 20:33:00,52.0,-40.0,30.03,SSW,202,9.0,17.0,0,0.00,,,0.00,Rainwise IP-100,2013-12-22 01:33:00,
2013-12-21 20:38:00,52.0,-40.0,30.03,SW,225,8.0,16.0,0,0.00,,,0.00,Rainwise IP-100,2013-12-22 01:38:00,
2013-12-21 20:43:00,52.0,-40.0,30.03,SSW,202,10.0,15.0,0,0.00,,,0.00,Rainwise IP-100,2013-12-22 01:43:00,
2013-12-21 20:48:00,52.0,-40.0,30.03,SSW,202,5.0,14.0,0,0.00,,,0.00,Rainwise IP-100,2013-12-22 01:48:00,
2013-12-21 20:53:00,52.0,-40.0,30.02,SW,225,1.0,17.0,0,0.00,,,0.00,Rainwise IP-100,2013-12-22 01:53:00,
2013-12-21 20:58:00,53.0,-40.0,30.02,WSW,247,8.0,16.0,0,0.00,,,0.00,Rainwise IP-100,2013-12-22 01:58:00,
2013-12-21 21:03:00,52.0,-40.0,30.02,SW,225,0.0,11.0,0,0.00,,,0.00,Rainwise IP-100,2013-12-22 02:03:00,
2013-12-21 21:08:00,52.0,-40.0,30.02,SSW,202,7.0,9.0,0,0.00,,,0.00,Rainwise IP-100,2013-12-22 02:08:00,
2013-12-21 21:13:00,52.0,-40.0,30.02,SSW,202,10.0,12.0,0,0.00,,,0.00,Rainwise IP-100,2013-12-22 02:13:00,
2013-12-21 21:18:00,52.0,-40.0,30.02,WSW,247,4.0,11.0,0,0.00,,,0.00,Rainwise IP-100,2013-12-22 02:18:00,
2013-12-21 21:23:00,52.0,-40.0,30.03,SSW,202,8.0,16.0,0,0.00,,,0.00,Rainwise IP-100,2013-12-22 02:23:00,
2013-12-21 21:28:00,52.0,-40.0,30.03,West,270,3.0,12.0,0,0.00,,,0.00,Rainwise IP-100,2013-12-22 02:28:00,
2013-12-21 21:33:00,52.0,-40.0,30.02,SW,225,9.0,15.0,0,0.00,,,0.00,Rainwise IP-100,2013-12-22 02:33:00,
2013-12-21 21:38:00,52.0,-40.0,30.02,SSW,202,4.0,11.0,0,0.00,,,0.00,Rainwise IP-100,2013-12-22 02:38:00,
2013-12-21 21:44:00,52.0,-40.0,30.02,SW,225,13.0,13.0,0,0.00,,,0.00,Rainwise IP-100,2013-12-22 02:44:00,
2013-12-21 21:49:00,52.0,-40.0,30.02,WNW,292,1.0,13.0,0,0.00,,,0.00,Rainwise IP-100,2013-12-22 02:49:00,
2013-12-21 21:54:00,53.0,-40.0,30.01,SSW,202,10.0,17.0,0,0.00,,,0.00,Rainwise IP-100,2013-12-22 02:54:00,
2013-12-21 21:59:00,53.0,-40.0,30.01,SW,225,7.0,10.0,0,0.00,,,0.00,Rainwise IP-100,2013-12-22 02:59:00,
2013-12-21 22:04:00,53.0,-40.0,30.01,SW,225,5.0,17.0,0,0.00,,,0.00,Rainwise IP-100,2013-12-22 03:04:00,
2013-12-21 22:09:00,53.0,-40.0,30.01,SSE,157,3.0,17.0,0,0.00,,,0.00,Rainwise IP-100,2013-12-22 03:09:00,
2013-12-21 22:14:00,53.0,-40.0,30.02,SW,225,12.0,12.0,0,0.00,,,0.00,Rainwise IP-100,2013-12-22 03:14:00,
2013-12-21 22:19:00,53.0,-40.0,30.02,South,180,10.0,14.0,0,0.00,,,0.00,Rainwise IP-100,2013-12-22 03:19:00,
2013-12-21 22:24:00,53.0,-40.0,30.02,South,180,11.0,16.0,0,0.00,,,0.00,Rainwise IP-100,2013-12-22 03:24:00,
2013-12-21 22:29:00,53.0,-40.0,30.01,South,180,10.0,17.0,0,0.00,,,0.00,Rainwise IP-100,2013-12-22 03:29:00,
2013-12-21 22:34:00,53.0,-40.0,30.01,SSW,202,15.0,17.0,0,0.00,,,0.00,Rainwise IP-100,2013-12-22 03:34:00,
2013-12-21 22:39:00,53.0,-40.0,30.01,SW,225,6.0,17.0,0,0.00,,,0.00,Rainwise IP-100,2013-12-22 03:39:00,
2013-12-21 22:44:00,53.0,-40.0,30.01,SSW,202,8.0,12.0,0,0.00,,,0.00,Rainwise IP-100,2013-12-22 03:44:00,
2013-12-21 22:49:00,53.0,-40.0,30.01,South,180,10.0,12.0,0,0.00,,,0.00,Rainwise IP-100,2013-12-22 03:49:00,
2013-12-21 22:54:00,53.0,-40.0,30.00,SW,225,14.0,16.0,0,0.00,,,0.00,Rainwise IP-100,2013-12-22 03:54:00,
2013-12-21 23:00:00,53.0,-40.0,30.00,SW,225,15.0,15.0,0,0.00,,,0.00,Rainwise IP-100,2013-12-22 04:00:00,
2013-12-21 23:05:00,53.0,-40.0,30.00,SW,225,12.0,18.0,0,0.00,,,0.00,Rainwise IP-100,2013-12-22 04:05:00,
2013-12-21 23:10:00,53.0,-40.0,30.00,SW,225,6.0,18.0,0,0.00,,,0.00,Rainwise IP-100,2013-12-22 04:10:00,
2013-12-21 23:15:00,53.0,-40.0,30.00,SSW,202,10.0,12.0,0,0.00,,,0.00,Rainwise IP-100,2013-12-22 04:15:00,
2013-12-21 23:20:00,53.0,-40.0,30.00,SE,135,6.0,12.0,0,0.00,,,0.00,Rainwise IP-100,2013-12-22 04:20:00,
2013-12-21 23:25:00,53.0,-40.0,30.00,SW,225,5.0,12.0,0,0.00,,,0.00,Rainwise IP-100,2013-12-22 04:25:00,
2013-12-21 23:30:00,53.0,-40.0,30.00,West,270,3.0,12.0,0,0.00,,,0.00,Rainwise IP-100,2013-12-22 04:30:00,
2013-12-21 23:35:00,53.0,-40.0,30.00,SW,225,8.0,11.0,0,0.00,,,0.00,Rainwise IP-100,2013-12-22 04:35:00,
2013-12-21 23:40:00,53.0,-40.0,30.00,SW,225,6.0,15.0,0,0.00,,,0.00,Rainwise IP-100,2013-12-22 04:40:00,
2013-12-21 23:45:00,53.0,-40.0,30.00,South,180,6.0,15.0,0,0.00,,,0.00,Rainwise IP-100,2013-12-22 04:45:00,
2013-12-21 23:50:00,53.0,-40.0,30.00,SSW,202,9.0,12.0,0,0.00,,,0.00,Rainwise IP-100,2013-12-22 04:50:00,
2013-12-21 23:55:00,53.0,-40.0,30.00,SW,225,8.0,17.0,0,0.00,,,0.00,Rainwise IP-100,2013-12-22 04:55:00,